FW8369 Weather Reports


Display with metric or nautical units.
time (UTC)temp
F
wind
direction
speed
MPH
gust
MPH
rain 1hr
in
rain 24hr
in
rain mn
in
humidity
%
barometer
mb
20260507205404 77 310 0.0 0.0 0.00 0.00 0.00 90 1010.9
20260507204904 77 310 0.0 0.0 0.00 0.00 0.00 90 1010.8
20260507204404 77 310 0.0 0.0 0.00 0.00 0.00 90 1010.6
20260507203904 77 311 0.0 0.0 0.00 0.00 0.00 91 1010.6
20260507202904 77 311 0.0 0.0 0.00 0.00 0.00 91 1010.6
20260507202403 77 311 0.0 0.0 0.00 0.00 0.00 91 1010.6
20260507201904 77 332 0.0 0.0 0.00 0.00 0.00 91 1010.5
20260507201404 77 332 0.0 0.0 0.00 0.00 0.00 92 1010.5
20260507200904 77 333 0.0 0.0 0.00 0.00 0.00 92 1010.4
20260507200404 77 333 0.0 0.0 0.00 0.00 0.00 92 1010.3
20260507195404 77 333 0.0 0.0 0.00 0.00 0.00 91 1010.3
20260507194903 77 333 0.0 0.0 0.00 0.00 0.00 91 1010.2
20260507194404 77 333 0.0 0.0 0.00 0.00 0.00 91 1010.2
20260507193904 77 333 0.0 0.0 0.00 0.00 0.00 91 1010.1
20260507193405 77 338 0.0 0.0 0.00 0.00 0.00 91 1010.1
20260507192904 77 339 0.0 1.0 0.00 0.00 0.00 91 1010.1
20260507192403 78 339 0.0 0.0 0.00 0.00 0.00 91 1010.1
20260507191904 78 21 1.0 3.0 0.00 0.00 0.00 91 1010.1
20260507190904 78 279 0.0 0.0 0.00 0.00 0.00 90 1010.1
20260507190404 78 279 0.0 0.0 0.00 0.00 0.00 90 1010.2
20260507185904 78 248 0.0 2.0 0.00 0.00 0.00 90 1010.3
20260507185404 78 311 0.0 1.0 0.00 0.00 0.00 90 1010.4
20260507184903 78 335 0.0 1.0 0.00 0.00 0.00 90 1010.4
20260507184404 78 335 0.0 1.0 0.00 0.00 0.00 89 1010.5
20260507183904 78 335 0.0 1.0 0.00 0.00 0.00 89 1010.5
20260507183404 78 336 0.0 1.0 0.00 0.00 0.00 89 1010.6
20260507182904 78 337 0.0 1.0 0.00 0.00 0.00 89 1010.6
20260507182404 78 338 0.0 1.0 0.00 0.00 0.00 89 1010.7
20260507181905 78 337 1.0 1.0 0.00 0.00 0.00 89 1010.8
20260507181403 78 323 0.0 0.0 0.00 0.00 0.00 89 1011.0
20260507180903 78 323 0.0 0.0 0.00 0.00 0.00 89 1011.1
20260507180404 78 323 0.0 0.0 0.00 0.00 0.00 90 1011.1
20260507175904 78 323 0.0 0.0 0.00 0.00 0.00 90 1011.3
20260507174904 78 333 0.0 1.0 0.00 0.00 0.00 90 1011.1
20260507173904 78 358 0.0 2.0 0.00 0.00 0.00 90 1011.3
20260507173403 78 11 1.0 3.0 0.00 0.00 0.00 90 1011.4
20260507172905 78 315 1.0 2.0 0.00 0.00 0.00 90 1011.4
20260507171404 78 305 0.0 2.0 0.00 0.00 0.00 90 1011.4
20260507170904 78 301 1.0 2.0 0.00 0.00 0.00 90 1011.4
20260507170404 78 54 0.0 3.0 0.00 0.00 0.00 90 1011.4
20260507165904 78 56 1.0 3.0 0.00 0.00 0.00 90 1011.5
20260507164403 78 53 2.0 3.0 0.00 0.00 0.00 89 1011.5
20260507163904 78 31 1.0 2.0 0.00 0.00 0.00 89 1011.4
20260507163404 78 327 0.0 1.0 0.00 0.00 0.00 89 1011.5
20260507162904 78 347 0.0 0.0 0.00 0.00 0.00 90 1011.5
20260507162404 78 353 0.0 1.0 0.00 0.00 0.00 90 1011.6
20260507161904 78 58 0.0 3.0 0.00 0.00 0.00 90 1011.7
20260507161404 78 355 0.0 2.0 0.00 0.00 0.00 90 1011.9
20260507160904 78 296 1.0 2.0 0.00 0.00 0.00 90 1011.9
20260507155904 78 59 2.0 3.0 0.00 0.00 0.00 90 1011.8
20260507155404 78 11 1.0 3.0 0.00 0.00 0.00 90 1011.8
20260507154404 78 57 1.0 3.0 0.00 0.00 0.00 90 1011.8
20260507153904 78 325 1.0 3.0 0.00 0.00 0.00 90 1011.9
20260507153404 78 34 1.0 3.0 0.00 0.00 0.00 90 1011.8
20260507152404 78 4 0.0 2.0 0.00 0.00 0.00 90 1012.0
20260507151904 78 43 3.0 5.0 0.00 0.00 0.00 90 1012.1
20260507145904 78 335 0.0 3.0 0.00 0.00 0.00 90 1012.0
20260507144904 78 9 3.0 6.0 0.00 0.00 0.00 90 1012.0
20260507144404 78 343 1.0 3.0 0.00 0.00 0.00 90 1011.9
20260507143904 78 325 0.0 2.0 0.00 0.00 0.00 90 1011.9
20260507143404 78 17 1.0 3.0 0.00 0.00 0.00 90 1011.8
20260507142904 78 50 1.0 5.0 0.00 0.00 0.00 90 1011.8
20260507142404 78 298 0.0 2.0 0.00 0.00 0.00 90 1011.7
20260507141904 78 324 0.0 2.0 0.00 0.00 0.00 90 1011.6
20260507141404 78 308 1.0 3.0 0.00 0.00 0.00 90 1011.6
20260507140904 78 60 2.0 5.0 0.00 0.00 0.00 90 1011.6
20260507140404 78 297 1.0 3.0 0.00 0.00 0.00 90 1011.6
20260507135905 78 312 2.0 3.0 0.00 0.00 0.00 89 1011.6
20260507135404 78 313 1.0 2.0 0.00 0.00 0.00 90 1011.5
20260507134904 78 31 1.0 3.0 0.00 0.00 0.00 89 1011.4
20260507134404 78 24 0.0 3.0 0.00 0.00 0.00 89 1011.4
20260507133904 78 60 1.0 3.0 0.00 0.00 0.00 89 1011.2
20260507133404 78 52 1.0 3.0 0.00 0.00 0.00 88 1011.1
20260507132404 79 350 0.0 1.0 0.00 0.00 0.00 88 1011.0
20260507131404 79 335 0.0 1.0 0.00 0.00 0.00 88 1011.0
20260507130904 79 31 0.0 1.0 0.00 0.00 0.00 88 1010.9
20260507130405 79 39 1.0 2.0 0.00 0.00 0.00 88 1010.9
20260507125904 79 9 0.0 0.0 0.00 0.00 0.00 88 1010.9
20260507125403 79 52 0.0 3.0 0.00 0.00 0.00 88 1010.9
20260507124904 79 1 1.0 3.0 0.00 0.00 0.00 87 1010.8
20260507124405 79 340 1.0 2.0 0.00 0.00 0.00 87 1010.7
20260507123404 79 12 0.0 0.0 0.00 0.00 0.00 87 1010.5
20260507122904 79 45 0.0 3.0 0.00 0.00 0.00 87 1010.6
20260507122404 79 57 1.0 3.0 0.00 0.00 0.00 88 1010.5
20260507121904 79 46 2.0 3.0 0.00 0.00 0.00 87 1010.5
20260507121404 79 341 2.0 3.0 0.00 0.00 0.00 87 1010.5
20260507120904 80 41 0.0 2.0 0.00 0.00 0.00 86 1010.4
20260507120404 80 356 0.0 0.0 0.00 0.00 0.00 87 1010.4
20260507115904 79 7 1.0 3.0 0.00 0.00 0.00 87 1010.3
20260507115404 80 3 1.0 3.0 0.00 0.00 0.00 86 1010.3
20260507114404 80 345 0.0 1.0 0.00 0.00 0.00 86 1010.0
20260507113904 80 0 0.0 1.0 0.00 0.00 0.00 86 1010.1
20260507113404 80 17 0.0 3.0 0.00 0.00 0.00 86 1010.1
20260507112904 80 3 1.0 3.0 0.00 0.00 0.00 86 1010.1
20260507112404 80 37 1.0 3.0 0.00 0.00 0.00 86 1010.1
20260507111905 80 6 0.0 2.0 0.00 0.00 0.00 86 1010.0
20260507110904 80 337 0.0 1.0 0.00 0.00 0.00 86 1010.0
20260507110404 80 356 2.0 5.0 0.00 0.00 0.00 86 1010.0
20260507105904 81 62 3.0 5.0 0.00 0.00 0.00 85 1009.9
20260507105404 81 349 0.0 1.0 0.00 0.00 0.00 84 1009.9
20260507104904 81 325 0.0 1.0 0.00 0.00 0.00 84 1009.8
20260507103904 81 52 2.0 3.0 0.00 0.00 0.00 83 1009.7
20260507103404 82 52 1.0 3.0 0.00 0.00 0.00 83 1009.6
20260507102920 82 357 0.0 5.0 0.00 0.00 0.00 83 1009.5
20260507102407 82 64 2.0 3.0 0.00 0.00 0.00 82 1009.5
20260507101904 82 337 1.0 2.0 0.00 0.00 0.00 81 1009.4
20260507101404 82 332 0.0 1.0 0.00 0.00 0.00 82 1009.5
20260507100404 82 309 1.0 3.0 0.00 0.00 0.00 82 1009.5
20260507095904 82 319 1.0 3.0 0.00 0.00 0.00 82 1009.5
20260507095404 82 317 1.0 3.0 0.00 0.00 0.00 82 1009.4
20260507094404 82 25 1.0 3.0 0.00 0.00 0.00 82 1009.2
20260507093904 82 321 1.0 2.0 0.00 0.00 0.00 82 1009.3
20260507093404 82 312 2.0 5.0 0.00 0.00 0.00 82 1009.4
20260507092405 83 331 2.0 3.0 0.00 0.00 0.00 81 1009.3
20260507091904 83 344 2.0 3.0 0.00 0.00 0.00 81 1009.3
20260507091404 83 333 2.0 3.0 0.00 0.00 0.00 81 1009.3
20260507090904 83 345 1.0 5.0 0.00 0.00 0.00 81 1009.3
20260507090405 83 346 2.0 3.0 0.00 0.00 0.00 80 1009.3
20260507085903 83 341 1.0 3.0 0.00 0.00 0.00 81 1009.3
20260507085404 83 355 3.0 5.0 0.00 0.00 0.00 80 1009.4
20260507084904 83 349 1.0 3.0 0.00 0.00 0.00 80 1009.3
20260507084404 84 342 2.0 5.0 0.00 0.00 0.00 80 1009.3
20260507083904 84 312 2.0 3.0 0.00 0.00 0.00 79 1009.3
20260507083404 84 338 1.0 3.0 0.00 0.00 0.00 80 1009.3
20260507081904 83 61 2.0 3.0 0.00 0.00 0.00 81 1009.1
20260507081403 83 40 2.0 5.0 0.00 0.00 0.00 81 1009.2
20260507080904 83 52 2.0 7.0 0.00 0.00 0.00 81 1009.4
20260507080404 82 60 3.0 6.0 0.00 0.00 0.00 82 1009.4
20260507075904 83 53 3.0 6.0 0.00 0.00 0.00 81 1009.5
20260507075404 83 39 2.0 6.0 0.00 0.00 0.00 82 1009.6
20260507074904 83 59 3.0 7.0 0.00 0.00 0.00 81 1009.6
20260507074404 83 39 3.0 5.0 0.00 0.00 0.00 80 1009.7
20260507073904 83 327 1.0 3.0 0.00 0.00 0.00 80 1009.7
20260507073404 83 340 0.0 2.0 0.00 0.00 0.00 81 1009.8
20260507072904 83 349 0.0 3.0 0.00 0.00 0.00 82 1009.7
20260507072404 82 34 3.0 7.0 0.00 0.00 0.00 82 1009.8
20260507071904 83 46 3.0 8.0 0.00 0.00 0.00 81 1009.9
20260507070404 83 50 1.0 5.0 0.00 0.00 0.00 81 1010.0
20260507065904 83 58 2.0 5.0 0.00 0.00 0.00 81 1010.1
20260507065404 83 48 2.0 5.0 0.00 0.00 0.00 81 1010.1
20260507064404 83 18 3.0 7.0 0.00 0.00 0.00 80 1010.2
20260507063404 84 56 2.0 5.0 0.00 0.00 0.00 79 1010.3
20260507062904 83 323 1.0 8.0 0.00 0.00 0.00 80 1010.3
20260507062403 83 46 3.0 7.0 0.00 0.00 0.00 80 1010.3
20260507061904 84 35 3.0 6.0 0.00 0.00 0.00 78 1010.5
20260507061404 84 337 2.0 5.0 0.00 0.00 0.00 79 1010.5
20260507060404 84 28 1.0 5.0 0.00 0.00 0.00 78 1010.6
20260507055404 83 304 0.0 3.0 0.00 0.00 0.00 80 1010.7
20260507054904 83 61 1.0 3.0 0.00 0.00 0.00 80 1010.8
20260507054403 83 308 1.0 3.0 0.00 0.00 0.00 80 1010.8
20260507053904 82 312 1.0 3.0 0.00 0.00 0.00 81 1010.8
20260507053404 82 24 4.0 6.0 0.00 0.00 0.00 81 1010.8
20260507052904 83 62 2.0 3.0 0.00 0.00 0.00 80 1010.9
20260507052404 83 59 3.0 8.0 0.00 0.00 0.00 80 1010.8
20260507051904 83 19 2.0 3.0 0.00 0.00 0.00 80 1010.8
20260507051404 83 49 1.0 5.0 0.00 0.00 0.00 80 1010.9
20260507050404 83 9 1.0 6.0 0.00 0.00 0.00 79 1011.0
20260507045404 84 11 1.0 2.0 0.00 0.00 0.00 79 1011.1
20260507044904 83 291 1.0 2.0 0.00 0.00 0.00 79 1011.1
20260507044404 83 59 1.0 6.0 0.00 0.00 0.00 79 1011.1
20260507043904 83 283 0.0 3.0 0.00 0.00 0.00 80 1011.1
20260507043404 83 34 2.0 5.0 0.00 0.00 0.00 81 1011.2
20260507042904 82 23 2.0 8.0 0.00 0.00 0.00 81 1011.2
20260507041904 82 317 2.0 6.0 0.00 0.00 0.00 81 1011.3
20260507041404 82 55 3.0 7.0 0.00 0.00 0.00 81 1011.3
20260507040904 82 38 2.0 10.0 0.00 0.00 0.00 81 1011.5
20260507035404 82 36 2.0 5.0 0.00 0.00 0.00 82 1011.7
20260507034404 81 53 2.0 7.0 0.00 0.00 0.00 83 1011.9
20260507033904 81 58 4.0 8.0 0.00 0.00 0.00 83 1011.9
20260507033404 81 63 5.0 8.0 0.00 0.00 0.00 83 1012.0
20260507032903 81 66 3.0 6.0 0.00 0.00 0.00 83 1012.2
20260507031904 81 34 3.0 6.0 0.00 0.00 0.00 83 1012.3
20260507031404 81 5 4.0 6.0 0.00 0.00 0.00 82 1012.3